This is the latest recevied weather packets stored in our database for station/object KN6WGU. If no packets are shown the sender has not sent any weather packets the latest 10 day(s).
| Time | Temp. | Humidity | Pressure | Rain* | Wind** | Luminosity | Snow |
|---|---|---|---|---|---|---|---|
| 1778078784 | 10.56° C | 83% | 1004.8 hPa | 0 mm | - | 109 W/m² | - |
| 1778078480 | 10.56° C | 82% | 1004.7 hPa | 0 mm | - | 101 W/m² | - |
| 1778078179 | 10.56° C | 82% | 1004.7 hPa | 0 mm | - | 144 W/m² | - |
| 1778077876 | 11.11° C | 79% | 1004.5 hPa | 0 mm | - | 86 W/m² | - |
| 1778077574 | 11.11° C | 77% | 1004.1 hPa | 0 mm | - | 181 W/m² | - |
| 1778077272 | 11.11° C | 77% | 1004.4 hPa | 0 mm | - | 113 W/m² | - |
| 1778076969 | 11.11° C | 77% | 1004.4 hPa | 0 mm | - | 181 W/m² | - |
| 1778076668 | 11.11° C | 78% | 1004.3 hPa | 0 mm | - | 160 W/m² | - |
| 1778076365 | 11.11° C | 80% | 1004.1 hPa | 0 mm | - | 169 W/m² | - |
| 1778076062 | 11.11° C | 83% | 1004.1 hPa | 0 mm | - | 178 W/m² | - |
| 1778075759 | 10.56° C | 83% | 1004 hPa | 0 mm | - | 197 W/m² | - |
| 1778075455 | 10.56° C | 83% | 1004 hPa | 0 mm | - | 169 W/m² | - |
| 1778075152 | 10.56° C | 83% | 1004.2 hPa | 0 mm | - | 183 W/m² | - |
| 1778074847 | 10.56° C | 83% | 1004.2 hPa | 0 mm | - | 177 W/m² | - |
| 1778074545 | 10.56° C | 84% | 1004.1 hPa | 0 mm | - | 130 W/m² | - |
| 1778074242 | 10.56° C | 84% | 1004.1 hPa | 0 mm | - | 130 W/m² | - |
| 1778073939 | 10° C | 84% | 1004.1 hPa | 0 mm | - | 131 W/m² | - |
| 1778073636 | 10.56° C | 84% | 1003.6 hPa | 0 mm | - | 126 W/m² | - |
| 1778073333 | 10° C | 83% | 1003.9 hPa | 0 mm | - | 132 W/m² | - |
| 1778073029 | 10° C | 83% | 1003.7 hPa | 0 mm | - | 138 W/m² | - |
| 1778072726 | 10.56° C | 84% | 1003.5 hPa | 0 mm | - | 132 W/m² | - |
| 1778072424 | 10° C | 83% | 1003.6 hPa | 0 mm | - | 127 W/m² | - |
| 1778072122 | 10° C | 82% | 1003.3 hPa | 0 mm | - | 87 W/m² | - |
| 1778071819 | 10° C | 82% | 1003.5 hPa | 0 mm | - | 110 W/m² | - |
| 1778071517 | 10° C | 82% | 1003.1 hPa | 0 mm | - | 105 W/m² | - |
* Rain latest hour (hover to see other rain measurements)
** Current wind speed in m/s (hover to see current wind gust speed)